DateTimeUTC,F1_A11,F1_S11,BsB_S11,BsG_S11,BsR_S11,BbsB_S11,BbsG_S11,BbsR_S11,BaB_A11,BaG_A11,BaR_A11,Tu_S11,T_S11,Uu_S11,U_S11,P_S11,T1_A11
2021-11-23T13:00:00Z,00000200,21000000,,,,,,,-000.08,0000.04,-000.18,18.8,25.8,,00.0,0640.7,30.9
2021-11-23T13:01:00Z,00000200,21000000,,,,,,,-000.12,-000.42,0000.19,18.8,25.8,,00.0,0640.7,30.9
2021-11-23T13:02:00Z,00000200,21000000,,,,,,,-000.27,0000.34,-000.32,18.8,25.8,,00.0,0640.6,30.8
2021-11-23T13:03:00Z,00000200,61000000,,,,,,,0000.72,0000.55,0000.41,18.8,25.8,,00.0,0640.6,30.8
2021-11-23T13:04:00Z,00000200,41000000,0000.30,0000.21,0000.22,0000.71,-000.06,0000.21,-000.10,0000.22,0000.13,18.8,25.5,,00.0,0641.4,30.8
2021-11-23T13:05:00Z,00000200,01000000,0000.44,-000.16,0000.26,0000.09,-000.06,0000.28,0000.48,0000.01,0000.14,18.8,25.5,,00.0,0641.5,30.8
2021-11-23T13:06:00Z,00000200,01000000,-000.35,0000.64,-000.13,0000.05,-000.03,-000.24,-000.04,-000.10,0000.22,18.8,25.5,,00.0,0641.5,30.8
2021-11-23T13:07:00Z,00000200,01000000,0000.51,0000.08,0000.09,0000.79,0000.02,-000.02,0000.35,0000.37,0000.08,18.9,25.5,,00.0,0641.5,30.8
2021-11-23T13:08:00Z,00000200,01000000,0001.18,-000.05,0000.27,0000.01,-000.01,-000.28,0000.14,0000.19,0000.38,18.9,25.5,,00.0,0641.6,30.8
2021-11-23T13:09:00Z,00000200,01000000,-000.24,0000.37,0000.17,-000.07,0000.22,0000.51,0000.07,0000.03,-000.08,19.0,25.5,,00.0,0641.6,30.8
2021-11-23T13:10:00Z,00000200,01000000,-000.03,0000.42,-000.06,-000.09,-000.08,0000.24,0000.09,-000.08,0000.07,19.0,25.5,,00.0,0641.6,30.9
2021-11-23T13:11:00Z,00000200,01000000,0000.06,0000.34,0000.17,0000.91,0000.03,0000.18,-000.37,-000.03,-000.02,19.0,25.5,,00.0,0641.6,30.9
2021-11-23T13:12:00Z,00000200,01000000,0000.83,0000.34,-000.21,0000.68,0000.31,0000.15,0000.40,0000.10,-000.01,19.1,25.5,,00.0,0641.7,30.9
2021-11-23T13:13:00Z,00000200,01000000,0000.16,0000.23,0000.26,-000.15,0000.11,0000.00,-000.24,-000.20,-000.11,19.1,25.5,,00.0,0641.7,30.9
2021-11-23T13:14:00Z,00000200,01000000,0000.08,0000.37,0000.01,0000.47,-000.18,0000.04,-000.39,0000.19,0000.05,19.1,25.5,,00.0,0641.7,30.9
2021-11-23T13:15:00Z,00000200,01000000,0000.72,0000.26,0000.06,0000.78,0000.08,-000.04,0000.19,-000.25,-000.49,19.1,25.5,,00.0,0641.7,30.9
2021-11-23T13:16:00Z,00000200,01000000,0000.31,0000.24,0000.19,0001.19,0000.27,-000.01,0000.05,0000.11,0000.17,19.0,25.5,,00.0,0641.7,30.8
2021-11-23T13:17:00Z,00000200,01000000,0000.24,0000.25,0000.30,0000.04,-000.07,-000.19,-000.07,-000.10,0000.11,18.9,25.5,,00.0,0641.7,30.8
2021-11-23T13:18:00Z,00000200,01000000,0000.79,0000.49,-000.10,0000.22,0000.12,0000.15,0000.25,0000.28,0000.35,18.8,25.4,,00.0,0641.7,30.8
2021-11-23T13:19:00Z,00000200,01000000,-000.23,0000.18,0000.07,0000.61,0000.06,0000.04,-000.04,0000.05,-000.14,18.8,25.4,,00.0,0641.7,30.8
2021-11-23T13:20:00Z,00000200,01000000,0000.11,0000.41,-000.22,0000.56,0000.37,0000.24,0000.18,0000.06,0000.02,18.8,25.4,,00.0,0641.8,30.8
2021-11-23T13:21:00Z,00000200,01000000,-000.38,0000.40,-000.03,-000.21,0000.49,0000.24,0000.03,-000.07,-000.15,18.8,25.3,,00.0,0641.8,30.8
2021-11-23T13:22:00Z,00000200,01000000,0000.77,0000.17,-000.08,0000.10,-000.05,0000.07,0000.09,0000.11,-000.03,18.8,25.4,,00.0,0641.8,30.8
2021-11-23T13:23:00Z,00000200,01000000,0000.16,0000.26,0000.15,0000.35,0000.12,0000.33,0000.19,0000.21,0000.07,18.9,25.3,,00.0,0641.8,30.8
2021-11-23T13:24:00Z,00000200,01000000,-000.66,0000.05,0000.23,0000.30,-000.02,0000.09,0000.01,-000.07,0000.34,18.9,25.4,,00.0,0641.9,30.8
2021-11-23T13:25:00Z,00000200,01000000,0000.18,0000.57,0000.02,-000.33,-000.01,0000.14,-000.18,-000.10,-000.09,19.0,25.4,,00.0,0641.9,30.8
2021-11-23T13:26:00Z,00000200,01000000,0000.04,0000.43,-000.13,0000.19,0000.09,0000.06,0000.41,0000.10,0000.37,19.0,25.4,,00.0,0641.9,30.8
2021-11-23T13:27:00Z,00000200,01000000,-000.05,0000.37,-000.20,0000.50,-000.00,0000.01,-000.24,0000.13,-000.45,19.0,25.4,,00.0,0642.0,30.8
2021-11-23T13:28:00Z,00000200,01000000,0000.14,0000.59,-000.17,0000.56,-000.25,0000.02,0000.24,0000.00,0000.23,19.0,25.4,,00.0,0642.0,30.8
2021-11-23T13:29:00Z,00000200,01000000,0000.36,0000.31,0000.05,-000.11,-000.23,0000.16,-000.02,0000.23,-000.06,19.1,25.4,,00.0,0642.0,30.8
2021-11-23T13:30:00Z,00000200,01000000,0000.23,0000.27,0000.04,-000.05,-000.06,-000.05,-000.09,-000.02,0000.03,19.1,25.4,,00.0,0642.1,30.9
2021-11-23T13:31:00Z,00000200,01000000,0000.37,0000.29,0000.02,0000.22,-000.02,0000.08,-000.07,-000.23,-000.31,19.1,25.5,,00.0,0642.1,30.9
2021-11-23T13:32:00Z,00000200,01000000,0000.77,0000.05,0000.05,0000.76,0000.16,0000.09,-000.02,-000.23,0000.33,19.1,25.5,,00.0,0642.2,30.9
2021-11-23T13:33:00Z,00000200,01000000,-000.11,0000.26,0000.01,0000.72,-000.22,0000.21,0000.12,-000.07,-000.23,19.1,25.5,,00.0,0642.2,30.9
2021-11-23T13:34:00Z,00000200,01000000,0000.38,0000.31,-000.09,-000.22,0000.10,-000.05,0000.36,0000.40,-000.14,19.1,25.4,,00.0,0642.2,30.9
2021-11-23T13:35:00Z,00000200,01000000,0000.57,0000.39,0000.18,0000.73,0000.49,0000.10,-000.00,0000.06,0000.21,19.1,25.4,,00.0,0642.2,30.8
2021-11-23T13:36:00Z,00000200,01000000,-000.20,0000.14,-000.03,0000.28,-000.01,0000.46,-000.17,-000.00,0000.00,19.1,25.4,,00.0,0642.3,30.9
2021-11-23T13:37:00Z,00000200,01000000,0000.44,0000.31,-000.01,0000.04,0000.07,-000.05,-000.06,0000.02,-000.02,19.1,25.4,,00.0,0642.3,30.9
2021-11-23T13:38:00Z,00000200,01000000,0000.48,0000.10,-000.04,-000.33,0000.02,-000.13,0000.17,0000.14,0000.27,19.1,25.4,,00.0,0642.3,30.9
2021-11-23T13:39:00Z,00000200,01000000,-000.19,0000.10,-000.05,0000.90,0000.10,0000.02,0000.28,-000.05,0000.34,19.1,25.5,,00.0,0642.3,30.9
2021-11-23T13:40:00Z,00000200,01000000,0000.18,0000.21,-000.34,0000.23,0000.14,-000.05,0000.03,0000.57,-000.31,19.2,25.5,,00.0,0642.4,30.9
2021-11-23T13:41:00Z,00000200,01000000,-000.65,0000.16,-000.11,0000.24,-000.16,0000.10,-000.04,-000.54,0000.10,19.2,25.5,,00.0,0642.3,30.9
2021-11-23T13:42:00Z,00000200,01000000,0000.22,0000.15,0000.10,-000.26,0000.12,-000.12,-000.02,0000.42,0000.19,19.2,25.5,,00.0,0642.3,30.9
2021-11-23T13:43:00Z,00000200,01000000,0000.48,0000.44,0000.08,-000.05,-000.11,-000.08,-000.27,-000.18,-000.08,19.3,25.5,,00.0,0642.4,30.9
2021-11-23T13:44:00Z,00000200,01000000,0000.87,0000.19,0000.01,0000.34,-000.10,-000.19,0000.14,-000.20,0000.01,19.2,25.5,,00.0,0642.3,30.9
2021-11-23T13:45:00Z,00000200,01000000,0000.74,0000.41,0000.19,-000.28,-000.06,0000.25,-000.09,-000.09,-000.10,19.1,25.5,,00.0,0642.3,30.9
2021-11-23T13:46:00Z,00000200,01000000,0000.24,0000.35,0000.09,0000.52,0000.34,-000.15,0000.13,0000.39,0000.16,19.0,25.5,,00.0,0642.3,30.8
2021-11-23T13:47:00Z,00000200,01000000,0000.59,0000.31,-000.16,0000.09,0000.21,0000.15,0000.34,-000.02,-000.04,18.9,25.4,,00.0,0642.3,30.8
2021-11-23T13:48:00Z,00000200,01000000,0000.19,0000.22,0000.36,-000.03,-000.12,-000.08,0000.02,-000.11,0000.20,18.8,25.3,,00.0,0642.3,30.8
2021-11-23T13:49:00Z,00000200,01000000,-000.78,-000.12,-000.02,0000.15,-000.04,0000.11,0000.13,0000.21,0000.02,18.8,25.3,,00.0,0642.2,30.8
2021-11-23T13:50:00Z,00000200,01000000,0000.37,-000.05,0000.22,-000.04,-000.24,0000.03,0000.28,0000.25,0000.11,18.8,25.3,,00.0,0642.2,30.8
2021-11-23T13:51:00Z,00000200,01000000,0000.58,0000.16,0000.31,0000.38,-000.10,0000.20,-000.07,0000.03,0000.04,18.8,25.3,,00.0,0642.3,30.8
2021-11-23T13:52:00Z,00000200,01000000,0000.70,0000.34,-000.25,-000.24,0000.25,-000.10,0000.14,0000.24,0000.18,18.8,25.3,,00.0,0642.3,30.8
2021-11-23T13:53:00Z,00000200,01000000,0000.27,0000.01,-000.02,0001.35,-000.02,-000.20,0000.03,0000.35,0000.06,18.9,25.3,,00.0,0642.3,30.8
2021-11-23T13:54:00Z,00000200,01000000,0000.26,0000.21,-000.47,-000.44,-000.17,0000.54,0000.34,-000.23,0000.17,18.9,25.3,,00.0,0642.3,30.8
2021-11-23T13:55:00Z,00000200,01000000,0000.08,-000.01,-000.02,0000.12,0000.07,0000.17,-000.21,0000.02,-000.25,18.9,25.3,,00.0,0642.4,30.8
2021-11-23T13:56:00Z,00000200,01000000,-000.11,0000.16,0000.05,-000.24,0000.07,0000.35,0000.24,0000.22,0000.46,19.0,25.4,,00.0,0642.4,30.8
2021-11-23T13:57:00Z,00000200,41000000,,,,,,,0000.42,0000.12,0000.07,19.0,25.4,,00.0,0642.4,30.8
2021-11-23T13:58:00Z,00000200,61000000,,,,,,,-000.47,0000.10,0000.05,18.7,25.5,,00.0,0641.5,30.8
2021-11-23T13:59:00Z,00000200,21000000,,,,,,,-000.26,-000.29,-000.25,18.7,25.6,,00.0,0641.5,30.8
